Location: Evensen
(52.5775°N, 9.5258°E)
Time: 16:01:51
(UTC+00:00)

NOSS 3-3 (A) - Pass Details

Date: 15 May 2026
Orbit: 691 x 1518 km, 63.4° (Epoch: 11 January)

Event Time Altitude Azimuth Distance (km) Brightness Sun altitude
Rises 19:57:37 0° 215° (SW) 3,159 6.6 -6.3°
Reaches altitude 10° 19:59:49 10° 214° (SSW) 2,301 5.9 -6.5°
Maximum altitude 20:05:02 72° 131° (SE) 906 3.7 -7.1°
Drops below altitude 10° 20:11:22 10° 48° (NE) 2,777 6.4 -7.8°
Sets 20:14:15 0° 47° (NE) 3,866 7.1 -8.1°
